Date,TemperatureHighF,TemperatureAvgF,TemperatureLowF,DewpointHighF,DewpointAvgF,DewpointLowF,HumidityHigh,HumidityAvg,HumidityLow,PressureMaxIn,PressureMinIn,WindSpeedMaxMPH,WindSpeedAvgMPH,GustSpeedMaxMPH,PrecipitationSumIn
2013-4-2,72,61,55,39,27,-100,49,30,23,30.05,29.88,8,-38,0,0.00
2013-4-3,61,55,47,34,30,24,48,39,28,30.11,29.98,8,2,0,0.00
2013-4-4,53,44,38,39,36,31,95,75,46,30.05,29.78,8,2,0,0.60
2013-4-5,72,53,36,50,42,35,98,71,40,29.90,29.73,8,2,0,0.00
2013-4-6,74,58,38,46,38,34,84,51,30,30.06,29.91,7,2,0,0.00
2013-4-7,74,60,46,52,46,36,85,61,45,30.07,29.92,7,2,0,0.00
2013-4-8,78,65,52,60,54,46,92,69,47,29.99,29.88,8,2,0,0.00
2013-4-9,83,70,55,62,57,52,90,66,47,30.03,29.91,9,2,0,0.00
2013-4-10,86,71,56,64,59,55,95,68,46,29.94,29.76,8,2,0,0.00
2013-4-11,80,69,60,67,62,56,95,77,57,29.80,29.53,9,3,0,0.03
2013-4-12,77,67,58,67,54,38,98,67,28,29.72,29.50,12,5,0,0.99
2013-4-13,81,64,45,48,40,34,78,46,20,29.89,29.71,8,2,0,0.00
2013-4-14,72,60,47,55,47,38,95,63,38,29.97,29.85,6,2,0,0.02
2013-4-15,73,63,54,63,58,54,98,87,68,30.08,29.84,7,2,0,0.12
2013-4-16,82,68,61,65,60,58,94,77,54,30.17,30.03,8,1,0,0.00
2013-4-17,87,68,61,69,63,59,98,86,54,30.11,29.98,8,2,0,1.08
2013-4-18,83,69,60,66,62,60,98,81,52,30.01,29.82,7,2,0,0.01
2013-4-19,69,62,47,66,60,45,98,95,83,29.81,29.64,10,4,0,1.11
2013-4-20,70,53,36,46,38,33,97,61,33,30.13,29.80,7,2,0,0.00
2013-4-21,69,56,43,43,39,34,70,54,36,30.28,30.13,11,2,0,0.00
2013-4-22,68,56,44,46,42,37,85,62,42,30.25,30.04,11,3,0,0.00
2013-4-23,76,59,42,53,44,34,82,60,43,30.12,29.93,9,2,0,0.00
2013-4-24,75,62,50,63,56,48,97,81,60,29.98,29.86,8,3,0,0.02
2013-4-25,80,63,46,59,50,41,98,68,29,30.08,29.90,7,2,0,0.00
2013-4-26,75,66,59,48,40,-100,65,42,33,30.19,30.13,6,-28,0,0.00
2013-4-27,62,56,53,58,53,47,98,90,68,30.19,30.06,5,1,0,0.35
2013-4-28,55,53,51,54,52,50,98,98,97,30.07,29.86,5,1,0,3.10
2013-4-29,77,63,53,64,58,53,98,85,59,29.89,29.73,6,2,0,0.09
2013-4-30,79,66,52,65,59,51,98,81,58,29.98,29.79,10,2,0,0.00
2013-5-1,70,63,55,60,57,53,95,81,67,30.08,29.98,13,3,0,0.00
2013-5-2,68,61,57,61,58,56,97,89,77,30.09,30.02,8,3,0,0.00
2013-5-3,66,59,55,59,56,54,98,90,75,30.02,29.87,9,3,0,0.05
2013-5-4,58,54,51,55,50,46,98,88,73,29.88,29.74,14,3,0,1.07
2013-5-5,55,52,49,55,52,49,98,98,95,29.75,29.62,10,4,0,2.31
2013-5-6,66,56,47,54,51,46,98,84,62,29.73,29.60,8,2,0,0.05
2013-5-7,73,58,42,60,50,42,98,79,48,29.77,29.67,7,2,0,0.00
2013-5-8,78,62,48,63,56,47,98,81,53,29.84,29.74,7,2,0,0.00
2013-5-9,83,68,51,64,58,51,98,76,48,29.91,29.82,7,2,0,0.00
2013-5-10,80,68,55,67,62,54,98,80,59,29.89,29.76,7,2,0,0.00
2013-5-11,79,68,59,67,63,59,98,84,64,29.78,29.63,11,2,0,0.02
2013-5-12,75,63,49,60,46,32,98,63,21,29.86,29.68,14,2,0,0.01
2013-5-13,76,58,39,46,38,31,89,52,22,30.02,29.84,10,2,0,0.00
2013-5-14,78,61,40,56,46,35,85,59,41,30.08,29.89,8,2,0,0.00
2013-5-15,90,73,55,67,60,53,94,67,42,29.92,29.76,8,3,0,0.00
2013-5-16,85,72,60,67,61,55,84,70,51,29.87,29.78,6,2,0,0.00
2013-5-17,84,72,59,68,63,58,98,75,53,29.92,29.82,6,1,0,0.00
2013-5-18,77,68,63,70,66,60,98,92,76,29.95,29.85,4,1,0,0.81
2013-5-19,74,69,64,70,67,64,98,93,82,29.92,29.82,4,1,0,0.76
2013-5-20,86,72,62,72,67,61,98,87,61,29.93,29.81,8,2,0,0.00
2013-5-21,90,73,64,74,68,63,98,86,53,29.86,29.73,6,1,0,0.62
2013-5-22,85,72,63,74,68,62,98,87,67,29.82,29.66,6,2,0,0.43
2013-5-23,84,72,63,72,64,57,98,80,49,29.76,29.64,8,2,0,0.24
2013-5-24,82,68,55,61,50,39,94,59,24,30.03,29.71,5,2,0,0.00
2013-5-25,80,64,46,56,48,40,88,60,37,30.13,29.98,7,2,0,0.00
2013-5-26,81,64,53,59,54,49,93,70,47,30.12,29.98,5,1,0,0.00
2013-5-27,87,70,53,66,59,52,97,71,49,30.09,29.94,7,1,0,0.00
2013-5-28,86,74,63,68,64,60,92,74,52,30.04,29.95,7,2,0,0.00
2013-5-29,87,74,62,70,65,60,97,75,52,30.06,29.95,6,2,0,0.00
2013-5-30,85,74,63,70,65,62,97,76,54,30.09,29.96,5,1,0,0.00
2013-5-31,87,76,66,71,67,64,96,76,54,30.05,29.90,5,2,0,0.00
2013-6-1,88,76,68,70,68,65,94,77,54,29.95,29.81,7,2,0,0.00
2013-6-2,80,71,67,74,69,66,98,93,81,29.85,29.71,6,1,0,2.17
2013-6-3,88,74,66,74,69,65,98,86,57,29.75,29.65,5,1,0,0.00
2013-6-4,87,75,62,72,68,61,98,78,56,29.86,29.74,8,2,0,0.00
2013-6-5,86,74,66,74,69,65,98,86,67,29.89,29.74,10,3,0,0.71
2013-6-6,76,69,64,72,68,64,98,96,89,29.79,29.63,3,1,0,0.56
2013-6-8,83,77,70,72,70,69,94,80,67,29.90,29.78,8,2,0,0.00
2013-6-9,86,74,67,77,70,66,98,89,69,29.94,29.83,14,3,0,1.08
2013-6-10,78,72,67,73,70,66,98,94,82,29.86,29.73,7,3,0,0.88
2013-6-11,93,78,68,75,70,67,98,80,49,29.82,29.72,6,2,0,0.81
2013-6-12,93,78,65,80,72,64,98,84,63,29.85,29.73,6,1,0,0.00
2013-6-13,93,78,68,77,72,67,98,82,53,29.73,29.51,10,2,0,0.20
2013-6-14,87,74,59,69,63,58,98,72,43,29.83,29.60,4,1,0,0.00
2013-6-15,86,74,58,70,63,56,95,70,52,29.95,29.84,6,1,0,0.00
2013-6-16,87,76,62,71,67,61,98,77,55,29.97,29.82,8,2,0,0.00
2013-6-17,87,76,69,76,72,69,98,89,69,29.86,29.73,5,2,0,0.52
2013-6-18,84,74,69,77,72,68,98,92,77,29.76,29.58,7,2,0,0.20
2013-6-19,85,75,68,72,68,65,93,79,63,29.90,29.68,7,2,0,0.00
2013-6-20,86,75,65,72,68,64,98,81,60,30.02,29.89,9,2,0,0.00
2013-6-21,87,75,65,71,66,64,97,78,54,30.07,29.96,9,2,0,0.00
2013-6-22,88,76,64,70,66,63,96,73,49,30.05,29.91,7,1,0,0.00
2013-6-23,90,76,65,75,70,64,98,83,60,30.02,29.90,7,1,0,0.44
2013-6-24,87,77,69,77,72,68,98,86,63,30.03,29.88,5,1,0,0.00
2013-6-25,89,77,68,76,72,67,98,84,62,29.96,29.81,6,1,0,0.00
2013-6-26,88,77,70,79,73,69,98,88,66,29.85,29.71,7,1,0,0.13
2013-6-27,90,79,70,78,74,69,98,86,66,29.75,29.53,8,2,0,0.12
2013-6-28,94,80,68,78,73,68,98,81,52,29.60,29.39,5,2,0,0.00
2013-6-29,90,78,67,75,70,65,98,79,47,29.50,29.41,7,2,0,0.00
2013-6-30,88,77,69,75,71,68,98,84,59,29.60,29.49,7,2,0,0.00
2013-7-1,85,74,68,75,70,67,98,89,64,29.74,29.59,9,2,0,0.81
2013-7-2,86,76,68,76,72,67,98,88,68,29.91,29.74,8,3,0,0.10
2013-7-3,84,72,67,75,71,66,98,95,75,30.01,29.89,7,2,0,1.17
2013-7-4,79,70,66,76,69,65,98,98,93,30.01,29.94,7,1,0,3.75
2013-7-5,86,74,68,75,71,68,98,91,66,30.05,29.96,7,2,0,0.25
2013-7-6,87,75,69,77,72,68,98,92,69,30.02,29.90,11,3,0,1.16
2013-7-7,82,75,70,77,73,70,98,93,79,29.97,29.88,7,2,0,0.93
2013-7-8,89,76,71,79,73,70,98,91,70,29.99,29.90,6,1,0,0.27
2013-7-9,92,78,69,79,73,69,98,88,67,30.00,29.85,6,2,0,0.66
2013-7-10,87,76,70,79,73,70,98,91,73,29.93,29.75,5,1,0,0.06
2013-7-11,82,76,72,77,74,71,98,95,84,29.77,29.66,4,1,0,0.01
2013-7-12,88,75,66,78,72,65,98,90,65,29.78,29.67,7,1,0,0.61
2013-7-13,82,72,66,75,70,65,98,93,80,29.90,29.78,5,2,0,0.20
2013-7-14,81,74,70,76,73,70,98,95,83,30.06,29.89,13,3,0,0.45
2013-7-15,89,77,69,77,73,69,98,87,67,30.12,30.03,8,2,0,0.30
2013-7-16,96,81,70,80,74,70,98,82,54,30.12,30.01,6,1,0,0.00
2013-7-17,93,78,69,80,73,68,98,87,62,30.06,29.92,7,1,0,0.39
2013-7-18,92,80,68,80,74,68,98,83,61,30.00,29.84,5,1,0,0.01
2013-7-19,91,81,70,79,75,70,98,85,63,29.92,29.77,7,1,0,0.00
2013-7-20,88,78,72,80,75,72,98,92,71,29.83,29.73,6,1,0,0.00
2013-7-21,89,76,71,80,74,71,98,92,72,29.81,29.71,5,1,0,1.16
2013-7-22,86,76,70,78,73,70,98,90,72,29.80,29.63,8,2,0,0.02
2013-7-23,89,77,69,78,73,68,98,88,65,29.69,29.56,5,2,0,0.08
2013-7-24,90,77,69,80,73,69,98,88,65,29.63,29.55,5,1,0,0.04
2013-7-25,91,76,66,75,70,65,98,85,61,29.80,29.62,8,2,0,0.93
2013-7-26,89,76,66,76,72,66,98,88,65,29.89,29.77,7,1,0,0.10
2013-7-27,83,75,70,76,73,70,98,93,79,29.81,29.68,7,2,0,2.18
2013-7-28,88,76,68,75,71,67,98,86,64,29.80,29.70,8,1,0,0.00
2013-7-29,89,76,65,74,70,64,98,82,57,29.94,29.80,5,1,0,0.00
2013-7-30,89,76,63,76,70,63,98,81,63,30.01,29.89,7,1,0,0.86
2013-7-31,82,73,68,77,72,67,98,95,82,29.95,29.76,4,1,0,0.53
2013-8-1,88,77,72,78,74,71,98,90,70,29.79,29.68,8,1,0,0.00
2013-8-2,92,78,68,77,72,67,98,83,61,29.83,29.71,5,1,0,0.00
2013-8-3,88,79,69,77,73,69,98,84,63,29.82,29.74,4,1,0,0.00
2013-8-4,92,80,70,78,73,66,98,81,61,29.81,29.72,7,1,0,0.00
2013-8-5,87,77,69,76,71,65,95,84,69,29.86,29.75,4,1,0,0.00
2013-8-6,86,76,71,78,74,71,98,93,75,29.84,29.74,8,2,0,4.09
2013-8-7,81,74,72,77,73,71,98,97,87,29.87,29.79,7,1,0,0.79
2013-8-8,84,76,71,78,74,71,98,94,83,29.88,29.80,5,1,0,0.04
2013-8-9,88,78,72,80,75,72,98,93,71,29.88,29.81,5,1,0,0.68
2013-8-10,90,78,71,80,75,71,98,92,71,29.91,29.84,7,1,0,0.21
2013-8-11,90,77,69,80,74,69,98,92,69,29.94,29.85,6,1,0,0.59
2013-8-12,92,79,70,81,75,70,98,90,64,29.89,29.75,6,1,0,0.32
2013-8-13,89,78,72,80,75,71,98,89,71,29.77,29.60,5,1,0,0.01
2013-8-14,84,74,66,73,70,65,98,90,69,29.85,29.65,6,1,0,0.70
2013-8-15,75,68,63,66,64,61,98,88,73,29.93,29.83,8,2,0,0.00
2013-8-16,78,68,62,68,63,60,95,86,69,29.95,29.86,6,2,0,0.00
2013-8-17,71,66,64,67,64,61,98,93,81,29.98,29.91,6,1,0,0.17
2013-8-18,77,69,64,72,68,64,98,96,85,30.03,29.93,5,1,0,0.64
2013-8-19,78,71,67,74,70,66,98,95,84,29.99,29.88,5,1,0,1.70
2013-8-20,84,74,68,75,71,68,98,92,74,29.99,29.90,6,1,0,0.00
2013-8-21,87,74,70,76,72,70,98,93,70,30.05,29.92,3,1,0,0.23
2013-8-22,89,77,68,77,73,68,98,89,65,29.97,29.83,4,1,0,0.00
2013-8-23,91,76,68,78,72,68,98,88,59,29.87,29.75,4,1,0,0.47
2013-8-24,85,74,65,71,67,62,98,83,59,30.08,29.85,8,2,0,0.00
2013-8-25,84,72,60,70,64,59,97,78,54,30.19,30.06,7,1,0,0.00
2013-8-26,86,72,59,73,66,58,98,82,61,30.12,29.92,5,1,0,0.00
2013-8-27,90,75,62,76,69,61,98,83,57,29.96,29.80,6,1,0,0.00
2013-8-28,90,78,67,76,72,66,98,83,58,29.84,29.73,4,1,0,0.00
2013-8-29,95,80,68,80,74,68,98,84,58,29.77,29.68,4,1,0,0.00
2013-8-30,85,77,73,77,74,73,98,91,76,29.85,29.73,4,1,0,0.00
2013-8-31,90,76,70,80,74,69,98,93,71,29.76,29.68,6,1,0,0.80
2013-9-1,87,77,70,79,74,70,98,92,76,29.72,29.60,8,2,0,0.08
2013-9-2,89,77,70,78,74,70,98,90,70,29.71,29.61,5,1,0,0.00
2013-9-3,92,77,66,78,72,65,98,86,63,29.76,29.62,6,1,0,0.22
2013-9-4,90,77,66,74,71,65,98,83,58,29.88,29.75,8,1,0,0.00
2013-9-5,90,77,66,76,71,65,98,84,59,29.92,29.83,5,1,0,0.00
2013-9-6,87,75,62,71,67,62,98,78,55,29.98,29.85,7,1,0,0.00
2013-9-7,87,74,63,74,68,63,98,84,63,29.94,29.78,5,1,0,0.00
2013-9-8,89,76,63,76,70,63,98,84,62,29.80,29.72,6,1,0,0.00
2013-9-9,89,77,66,79,71,65,98,84,62,29.92,29.78,8,1,0,0.00
2013-9-10,91,78,66,76,72,66,98,83,59,30.04,29.92,5,1,0,0.00
2013-9-11,90,77,65,76,71,65,98,83,55,30.02,29.88,5,1,0,0.00
2013-9-12,92,75,68,77,71,68,98,90,57,29.88,29.66,5,1,0,0.41
2013-9-13,87,74,63,73,66,58,98,78,48,29.67,29.56,4,1,0,0.00
2013-9-14,82,67,54,65,59,54,98,77,54,29.89,29.67,7,1,0,0.00
2013-9-15,83,71,61,71,65,59,98,82,66,30.00,29.89,6,1,0,0.00
2013-9-16,87,74,63,74,68,62,98,82,59,29.94,29.84,4,1,0,0.00
2013-9-17,75,69,65,66,62,59,86,78,70,30.09,29.92,7,2,0,0.00
2013-9-18,77,68,61,66,62,57,95,82,68,30.08,29.95,8,1,0,0.00
2013-9-22,70,61,62,66,50,-100,90,81,85,29.68,29.62,3,-71,0,0.00
2013-9-23,80,68,62,66,62,58,96,80,55,29.84,29.69,7,1,0,0.00
2013-9-24,76,67,58,68,64,57,98,90,75,29.87,29.71,5,1,0,0.00
2013-9-25,67,64,62,66,64,61,98,98,97,29.72,29.65,6,1,0,0.79
2013-9-26,79,66,58,69,63,56,98,89,67,29.83,29.67,6,1,0,0.00
2013-9-27,80,66,53,66,60,52,98,82,59,29.96,29.83,8,1,0,0.00
2013-9-28,77,66,56,64,60,56,98,82,60,30.05,29.93,7,2,0,0.00
2013-9-29,75,64,52,65,59,51,98,85,64,29.98,29.83,6,1,0,0.00
2013-9-30,78,66,56,67,61,55,98,87,59,29.90,29.79,4,1,0,0.00
2013-10-1,82,67,54,68,61,54,98,82,50,29.95,29.84,4,1,0,0.00
2013-10-2,86,70,57,69,64,56,98,83,54,29.96,29.85,6,1,0,0.00
2013-10-3,87,71,58,70,65,58,98,83,53,29.94,29.85,8,1,0,0.00
2013-10-4,88,72,58,72,66,58,98,82,56,29.96,29.86,5,1,0,0.00
2013-10-5,88,73,59,72,66,59,98,82,56,29.94,29.81,4,0,0,0.00
2013-10-6,85,72,63,72,67,62,98,86,61,29.84,29.65,7,1,0,0.00
2013-10-7,79,69,60,72,66,54,98,90,74,29.77,29.60,5,1,0,1.65
2013-10-8,74,63,56,60,56,53,91,77,59,29.97,29.75,7,2,0,0.00
2013-10-9,76,63,52,59,53,47,94,72,49,30.02,29.90,9,1,0,0.00
2013-10-10,84,64,48,66,57,47,98,81,53,29.92,29.77,5,1,0,0.00
2013-10-11,84,68,53,66,60,53,98,78,50,29.82,29.59,4,1,0,0.00
2013-10-12,81,67,54,67,61,53,98,83,57,29.88,29.76,5,1,0,0.00
2013-10-13,77,68,63,70,66,62,98,91,75,30.00,29.88,5,1,0,0.16
2013-10-14,74,66,60,68,64,60,98,92,77,30.02,29.93,9,2,0,0.01
2013-10-15,72,63,55,64,60,54,98,90,74,29.98,29.85,8,2,0,0.00
2013-10-16,75,63,52,64,59,51,98,88,67,29.88,29.76,4,1,0,0.00
2013-10-17,67,64,62,66,64,61,98,98,94,29.77,29.66,5,1,0,0.28
2013-10-18,76,64,56,64,60,55,98,90,65,29.82,29.69,4,1,0,0.01
2013-10-19,66,60,51,62,58,50,98,94,81,29.75,29.66,6,1,0,0.00
2013-10-20,71,56,42,55,50,41,98,82,52,29.88,29.74,9,1,0,0.01
2013-10-21,70,57,46,60,53,45,98,89,69,29.95,29.80,6,1,0,0.00
2013-10-22,71,60,55,63,57,55,98,90,68,29.82,29.61,4,1,0,0.00
2013-10-23,66,54,39,54,44,35,98,75,42,29.85,29.56,10,2,0,0.00
2013-10-24,65,47,32,49,40,31,98,78,51,29.98,29.85,7,1,0,0.00
2013-10-25,59,46,33,41,35,31,96,69,38,30.17,29.97,8,1,0,0.00
2013-10-26,59,44,28,42,36,27,97,75,50,30.16,29.91,10,1,0,0.00
2013-10-27,73,55,37,59,49,37,98,81,58,29.94,29.85,7,1,0,0.00
2013-10-28,69,59,53,63,56,52,98,90,66,30.07,29.92,6,1,0,0.04
2013-10-29,76,60,47,60,55,46,98,84,54,30.15,30.04,6,1,0,0.00
2013-10-30,79,64,54,65,59,54,98,84,59,30.11,29.95,7,1,0,0.00
2013-10-31,72,63,56,65,60,55,98,91,76,29.98,29.70,5,1,0,0.00
2013-11-1,74,65,58,68,63,57,98,94,79,29.70,29.46,10,2,0,0.40
2013-11-2,71,57,46,57,48,41,98,76,42,29.81,29.55,8,2,0,0.00
2013-11-3,67,51,37,48,42,37,97,74,46,30.15,29.79,7,1,0,0.00
2013-11-4,62,50,42,42,39,36,85,68,46,30.31,30.15,12,2,0,0.00
2013-11-5,65,50,36,48,41,33,89,73,48,30.34,30.20,9,2,0,0.00
2013-11-6,72,59,52,60,54,48,97,84,64,30.20,29.93,5,1,0,0.00
2013-11-7,76,57,40,65,49,33,98,78,33,29.95,29.76,4,1,0,0.04
2013-11-8,63,50,35,38,34,28,90,56,34,30.12,29.95,8,1,0,0.00
2013-11-9,60,47,36,42,35,27,83,64,42,30.18,30.03,6,1,0,0.00
2013-11-10,76,56,40,46,40,36,96,61,28,30.07,29.92,7,1,0,0.00
2013-11-11,65,50,36,39,35,30,80,59,36,30.17,29.96,9,1,0,0.00
2013-11-12,70,47,29,48,36,16,93,66,44,30.25,29.85,9,2,0,0.00
2013-11-13,54,37,23,21,16,9,75,46,20,30.35,30.24,5,1,0,0.00
2013-11-14,61,41,24,32,24,18,81,54,25,30.29,30.13,5,1,0,0.00
2013-11-15,59,47,33,48,39,24,98,74,50,30.15,30.00,2,0,0,0.25
2013-11-16,63,55,48,59,53,48,98,95,86,30.08,29.99,4,1,0,0.00
2013-11-17,61,59,56,60,58,55,98,97,92,30.01,29.71,4,1,0,1.15
2013-11-18,75,62,46,63,51,36,98,72,29,29.79,29.67,8,2,0,0.02
2013-11-19,61,48,35,39,33,29,88,59,33,30.04,29.78,7,2,0,0.00
2013-11-20,55,46,38,36,33,30,73,60,46,30.22,30.03,8,4,0,0.00
2013-11-21,52,48,46,50,44,36,98,84,66,30.27,30.18,6,3,0,0.08
2013-11-22,61,55,50,60,55,49,98,98,97,30.20,29.94,3,1,0,0.12
2013-11-23,64,54,38,60,49,25,98,82,52,30.00,29.88,5,1,0,0.01
2013-11-24,47,36,28,27,17,9,72,48,22,30.32,30.00,7,3,0,0.00
2013-11-25,45,35,25,26,15,10,65,45,32,30.35,30.12,5,2,0,0.00
2013-11-26,47,41,32,47,41,27,100,98,73,30.11,27.51,8,3,0,4.18
2013-11-27,47,40,24,47,34,20,100,82,55,30.01,29.33,9,2,0,0.32
2013-11-28,51,32,20,33,25,18,95,76,49,30.28,30.02,5,1,0,0.00
2013-11-29,60,41,26,35,29,24,96,67,36,30.38,30.24,5,2,0,0.00
2013-11-30,51,40,32,32,28,26,77,64,46,30.43,30.17,9,3,0,0.00
2013-12-1,57,44,35,44,37,29,96,77,58,30.17,29.82,6,1,0,0.00
2013-12-2,61,47,33,50,44,33,100,89,64,29.82,29.61,7,1,0,0.00
2013-12-3,59,52,48,56,52,48,100,99,88,29.76,29.66,5,0,0,0.11
2013-12-4,62,56,53,61,56,53,100,100,96,29.89,29.74,3,1,0,0.02
2013-12-5,68,63,58,68,63,58,100,100,100,29.91,29.80,8,2,0,0.78
2013-12-6,73,68,65,70,67,65,100,98,91,29.87,29.75,14,5,0,0.34
2013-12-7,66,58,50,65,55,46,100,89,66,30.17,29.80,8,3,0,0.05
2013-12-8,49,41,36,45,40,36,100,98,84,30.18,30.06,8,4,0,0.17
2013-12-9,46,41,36,46,41,36,100,100,100,30.07,29.84,4,1,0,1.40
2013-12-10,60,47,30,56,41,26,100,81,42,30.12,29.71,13,2,0,0.30
2013-12-11,55,37,24,36,29,23,99,76,45,30.25,30.11,7,1,0,0.00
2013-12-12,56,38,28,30,25,19,83,59,35,30.21,30.09,6,1,0,0.00
2013-12-13,54,39,25,33,27,19,82,63,40,30.18,30.04,5,1,0,0.00
2013-12-14,47,43,40,47,39,31,100,87,64,30.05,29.60,10,2,0,1.66
2013-12-15,57,45,31,46,40,29,100,85,54,29.93,29.56,7,2,0,0.01
2013-12-16,62,42,26,42,33,26,100,76,40,29.99,29.88,11,2,0,0.00
2013-12-17,66,48,33,45,37,28,96,70,42,29.97,29.77,13,4,0,0.00
2013-12-18,59,43,31,29,24,20,71,49,26,30.10,29.89,8,2,0,0.00
2013-12-19,63,44,30,36,29,20,77,57,33,30.14,30.02,7,1,0,0.00
2013-12-20,61,49,40,50,41,32,91,75,60,30.06,29.96,6,1,0,0.00
2013-12-21,60,55,51,60,54,48,100,97,90,29.96,29.80,3,1,0,0.25
2013-12-22,67,62,58,67,62,58,100,100,100,29.86,29.77,8,2,0,2.29
2013-12-23,63,55,45,61,54,43,100,97,89,29.96,29.80,6,2,0,0.53
2013-12-24,51,40,26,44,32,19,100,76,47,30.21,29.96,6,2,0,0.00
2013-12-25,45,32,21,22,19,17,86,61,36,30.33,30.17,7,2,0,0.00
2013-12-26,59,38,24,38,27,19,87,68,44,30.18,30.04,5,1,0,0.00
2013-12-27,56,40,31,34,29,25,82,66,41,30.29,30.14,5,1,0,0.00
2013-12-28,51,39,28,41,34,25,100,83,61,30.22,29.88,4,1,0,0.46
2013-12-29,65,48,40,56,46,40,100,94,68,29.86,29.61,9,2,0,0.75
2013-12-30,54,45,38,48,43,38,100,91,73,29.94,29.77,7,2,0,0.00
2013-12-31,54,42,34,41,34,27,100,76,35,30.17,29.93,7,1,0,0.00
2014-1-1,51,40,31,40,33,28,92,79,60,30.19,29.95,6,1,0,0.00
2014-1-2,46,41,28,46,39,18,100,93,66,29.95,29.48,11,3,0,0.28